Temp_Advection
nan nan nan nan nan nan nan nan nan nan nan nan nan nan nan nan nan nan nan nan nan nan nan nan nan nan nan nan nan nan nan nan nan nan nan nan nan nan nan nan nan nan nan
nan 0 0 0 0 0 0 1 1 1 1 1 1 0 0 0 -0 -0 -0 -0 -0 -0 -0 -0 -0 -0 -0 -0 -0 -0 -1 -1 -1 -1 -2 -2 -2 -1 -2 -1 -2 -1 nan
nan -0 0 0 0 0 0 0 0 1 1 0 0 -0 -0 -0 -0 -0 -0 -0 -0 -0 -0 -0 -0 -0 -0 -0 -0 -0 -0 -1 -0 0 -0 -0 -1 -4 -1 -2 -0 -1 nan
nan -0 -0 0 0 0 0 0 0 0 0 0 -0 -0 -0 -0 -0 0 0 -0 -0 -0 -0 -0 -0 -0 -0 -0 -0 -0 -0 -0 -1 -0 0 0 0 -0 -2 -1 -3 -1 nan
nan 0 0 0 0 0 0 0 0 0 0 0 0 0 0 0 0 0 0 -0 -0 -0 -0 -0 -0 -0 -0 -0 -0 -0 -0 -0 -0 -1 -0 -0 -0 1 0 -1 -1 -2 nan
nan 1 0 1 0 0 0 0 0 0 0 0 0 0 0 0 0 0 0 -0 -0 -0 -0 -0 -0 -0 -0 -0 -0 -0 -0 -0 -0 0 0 -0 -0 -0 0 0 -0 -0 nan
nan 0 0 0 0 0 0 0 0 -0 0 0 0 0 0 0 0 0 0 -0 -0 -0 -0 -0 -0 -0 -0 -0 -0 -0 -0 -0 -0 -0 0 0 0 0 -0 -0 -0 -0 nan
nan -0 0 0 0 0 0 0 0 -0 0 0 0 0 0 0 0 0 0 -0 -0 -0 -0 -0 -0 -0 -0 -0 -0 -0 -0 -0 -0 -0 0 0 -0 -0 -0 -0 -0 -0 nan
nan 0 0 0 0 0 0 0 0 0 0 0 0 0 0 0 0 0 -0 -0 -0 -0 -0 -0 -0 -0 -0 -0 -0 -0 -0 -0 -0 -0 -0 -0 -0 -0 -0 -0 -1 -0 nan
nan 0 0 0 0 1 1 1 1 1 0 0 0 0 0 0 0 0 -0 -0 -0 -0 -0 -0 -0 -0 -0 -0 -0 -0 -0 -1 -0 -0 -0 -0 -0 -0 -0 -0 -1 -0 nan
nan 0 0 0 0 1 0 0 1 1 1 1 0 0 0 0 0 0 -0 -0 -0 -0 -0 -0 -0 -0 -0 -0 -0 -0 -0 -1 -1 -0 -0 -1 -0 -0 -0 -0 -1 -1 nan
nan 0 0 0 0 0 0 1 1 1 1 1 1 0 0 0 0 -0 -0 -0 -0 -0 -0 -0 -0 -0 -0 -0 0 -0 -1 -0 -0 -1 -0 -1 -1 -0 -0 -0 -0 -0 nan
nan 0 0 0 -0 0 0 1 1 1 1 1 0 0 0 0 0 -0 -0 -0 -0 -0 -0 -0 -0 -0 -0 -0 -0 -0 -0 -0 -0 -0 -0 -0 -0 -0 -0 -0 -0 -0 nan
nan 0 -0 -0 0 0 1 1 1 1 1 1 0 0 0 0 -0 -0 -0 -0 -0 -0 -0 -0 -0 -0 -0 -0 -1 -0 -0 -0 -0 0 0 -0 -0 -0 -0 -0 -0 -0 nan
nan 0 -0 0 0 0 1 1 1 1 1 0 0 0 0 0 -0 -0 -0 -0 -0 -0 -0 -0 -0 -0 -0 -0 -0 -0 -0 -0 0 0 0 -0 -0 -0 -0 -0 -0 0 nan
nan -0 -0 0 0 0 0 1 1 0 0 0 0 0 0 -0 -0 -0 -0 -0 -0 -0 -0 -0 -0 -0 -0 0 -0 -0 -0 0 0 0 -0 -0 -0 -0 -1 -1 -0 -0 nan
nan -0 0 0 0 1 1 1 1 0 0 0 0 0 0 -0 -0 -0 -0 -0 -0 -0 -0 -0 -0 -0 -0 -0 0 -0 -0 0 0 -0 -0 -0 -0 -0 -1 -1 -0 -0 nan
nan 0 0 0 1 1 1 1 1 1 0 0 0 0 0 -0 -0 -0 -0 -0 -0 -0 -0 -0 -0 -1 -0 -0 -0 -0 -0 -0 -0 -0 -0 -0 -0 -0 -0 -0 -0 -0 nan
nan 1 1 1 1 1 1 1 1 0 0 0 0 0 -0 -0 -0 -0 -0 -0 -0 -0 -0 -0 -0 -0 -0 -0 -0 -1 -0 -0 -0 -0 0 -0 -0 -0 -1 -0 -0 -1 nan
nan 1 1 1 1 1 1 1 0 0 0 0 0 0 -0 -0 -0 -0 -0 -0 -0 -0 -0 -1 -0 -0 -0 -0 -0 -1 -0 -1 -0 -0 0 -0 -0 -0 -0 -0 -0 -0 nan
nan 1 1 1 1 1 1 1 0 0 0 0 0 0 -0 -0 -0 -0 -0 -0 -0 -1 -0 -0 -0 -0 -0 -0 0 -0 -0 -0 -0 -0 -0 -0 -0 -1 -1 -0 0 -0 nan
nan 1 0 1 1 1 1 0 0 0 0 0 0 0 -0 -0 -0 -0 -0 -0 -0 -1 -0 -0 -1 -1 -0 -0 0 0 -0 0 0 -0 -0 -1 -0 -1 -1 -1 -1 -0 nan
nan 0 0 0 0 0 0 0 0 0 0 0 0 -0 -0 0 -0 -0 -0 -0 -0 -0 -1 -1 -1 -1 -0 -0 -0 0 -0 -0 -0 0 -0 -0 -1 -1 -1 -1 -1 -1 nan
nan 0 0 0 0 0 0 0 0 0 0 0 -0 -0 -0 -0 -0 -0 -0 -0 -0 -0 -1 -1 -0 -0 -0 -0 -0 -0 0 -0 -0 -0 -0 -0 -0 -0 -0 -0 -0 -0 nan
nan 0 0 0 0 0 0 0 0 0 0 0 -0 -0 -0 -0 -0 -0 0 0 0 0 0 -0 -0 -0 -0 -0 -0 -0 -0 -0 -0 -0 -0 -1 -1 -1 -1 -1 -0 -0 nan
nan nan nan nan nan nan nan nan nan nan nan nan nan nan nan nan nan nan nan nan nan nan nan nan nan nan nan nan nan nan nan nan nan nan nan nan nan nan nan nan nan nan nan
Wind_Speed
17 10 11 12 11 11 14 16 23 26 27 27 27 25 21 16 16 10 9 8 6 4 5 9 12 15 17 17 17 17 17 17 22 26 28 24 19 9 16 26 23 22 13
19 16 17 17 16 17 19 22 25 25 25 23 21 19 17 15 13 12 9 6 4 5 9 13 16 18 17 16 16 16 18 19 21 24 24 16 24 10 34 14 26 13 18
28 24 21 22 22 21 20 21 22 22 21 18 18 19 19 17 14 11 7 5 4 7 12 16 19 19 18 16 15 16 19 21 21 21 15 10 9 41 14 35 10 30 24
31 30 27 23 23 24 23 22 22 20 16 14 16 16 17 16 13 9 5 3 4 9 14 18 20 20 19 16 16 16 18 20 23 23 22 18 23 24 23 18 44 25 41
36 34 29 25 24 24 24 24 23 22 20 19 17 17 16 13 11 7 3 1 6 10 15 19 21 21 18 17 17 17 18 20 21 22 26 28 31 29 29 34 27 39 38
37 33 29 27 27 26 25 23 22 21 19 18 16 16 14 12 10 7 2 3 8 12 15 19 21 20 18 17 18 19 20 21 23 24 24 26 28 30 35 41 41 38 36
41 37 33 31 29 28 26 25 23 24 22 20 19 17 14 11 9 5 1 3 8 13 17 20 20 18 17 17 19 20 22 23 26 27 28 28 26 29 34 36 42 38 40
42 37 33 31 30 28 27 26 25 24 22 21 19 16 13 10 7 3 1 6 11 14 18 20 19 16 17 18 20 22 24 26 28 29 28 26 28 32 34 34 38 46 43
41 36 32 31 30 28 27 26 25 23 22 20 18 15 12 8 5 2 4 9 13 16 18 18 17 16 18 20 22 25 27 29 30 30 28 28 32 38 34 34 35 36 41
39 34 32 31 30 28 26 24 22 20 20 18 16 13 10 7 5 4 7 11 15 17 18 17 17 17 19 22 25 28 29 31 31 29 29 32 39 40 36 31 31 35 36
39 35 32 30 29 28 26 24 22 21 19 17 15 12 10 7 6 6 10 13 16 17 17 17 17 19 22 25 28 30 30 32 31 31 34 39 40 36 33 32 30 31 32
38 34 33 31 30 29 26 24 22 20 19 16 14 12 10 8 6 8 11 14 16 17 17 17 19 21 24 28 30 31 32 31 32 37 40 41 39 32 28 28 32 35 38
37 35 34 33 31 29 27 24 22 20 19 16 14 12 9 7 6 9 12 15 16 16 17 18 21 24 27 30 31 31 29 31 35 37 39 40 32 29 29 31 36 37 35
39 39 36 33 30 28 26 24 22 19 17 16 14 11 8 6 7 10 13 15 16 17 17 20 23 27 29 30 31 29 31 32 34 37 38 35 29 29 32 34 34 33 39
39 41 39 35 30 26 24 22 20 18 16 15 13 9 6 5 7 11 15 16 15 16 19 23 25 27 29 30 29 29 29 31 35 37 36 33 29 27 27 32 38 38 40
36 39 37 33 29 26 25 23 20 17 15 14 11 8 5 5 8 13 15 14 16 19 22 24 27 28 29 29 27 26 28 31 33 36 37 34 33 30 32 35 32 33 38
37 36 35 31 26 25 24 23 19 16 14 12 9 6 5 7 10 13 13 15 18 21 24 25 27 28 29 29 26 26 28 30 32 35 36 37 35 35 39 39 37 40 40
33 33 30 26 24 25 22 19 17 14 12 11 8 6 5 8 11 12 13 16 20 23 25 26 27 28 29 28 26 26 28 30 33 33 32 34 36 39 36 40 44 42 43
30 28 26 25 26 24 22 18 14 12 12 10 6 4 6 9 10 12 15 19 23 24 25 27 28 29 30 28 26 26 28 32 32 32 31 34 36 37 38 41 43 42 39
26 26 25 24 23 22 17 14 13 12 10 7 4 4 7 8 10 14 18 21 23 25 27 28 28 28 29 30 25 24 27 30 34 37 39 38 36 37 36 40 39 39 45
22 21 21 20 17 16 14 13 12 11 8 4 3 5 6 8 12 16 20 23 25 27 28 29 29 30 31 33 27 25 26 28 33 38 40 43 39 35 38 35 38 36 37
20 17 17 16 15 14 13 13 11 8 5 3 3 3 6 9 13 18 21 23 25 27 29 31 32 32 33 32 32 26 27 27 33 35 42 41 35 38 37 33 30 32 32
17 15 15 16 14 13 10 9 8 6 4 2 1 4 7 11 16 20 22 24 25 27 29 31 34 35 34 34 32 33 29 32 33 38 35 33 37 36 33 31 30 30 37
16 15 14 14 14 13 10 8 6 4 3 1 2 5 9 14 18 20 22 25 26 27 28 30 32 33 34 34 33 34 35 36 38 38 36 40 35 31 31 34 36 36 34
14 12 12 12 11 11 10 7 5 4 2 1 4 8 13 17 19 21 23 24 24 22 25 26 27 29 32 32 31 31 34 36 36 35 38 37 35 37 37 37 38 38 37
13 12 11 10 10 10 8 7 5 3 1 4 7 11 15 18 21 23 24 23 24 24 23 22 21 25 24 28 29 30 32 33 33 32 33 33 34 35 36 38 41 40 38
Wind_Direction
181 182 168 169 181 176 171 165 161 174 182 183 185 185 190 195 193 203 151 134 113 68 17 357 348 341 337 336 334 336 339 344 341 340 340 342 334 321 327 323 331 327 318
169 164 161 165 163 155 156 160 171 176 186 191 191 196 190 181 164 143 134 115 79 33 9 1 354 350 347 341 340 343 346 350 354 351 349 342 342 314 331 322 328 312 306
169 162 166 175 167 161 161 161 162 171 176 177 178 170 162 152 148 140 134 110 53 18 6 3 358 353 347 343 343 345 346 346 345 349 356 342 320 325 325 323 320 313 314
168 164 171 176 171 167 167 164 166 171 174 173 164 157 155 151 147 145 135 94 29 3 359 357 354 349 344 339 340 342 341 338 338 337 335 326 318 319 316 308 318 324 315
173 172 175 177 170 165 167 167 166 163 159 157 159 155 152 153 149 152 156 44 6 1 356 352 347 342 338 334 332 333 335 336 334 332 328 325 323 322 313 309 308 312 314
169 169 169 170 166 165 164 163 164 160 161 162 160 164 165 161 163 167 176 2 358 354 349 345 341 336 333 331 331 331 330 329 327 326 323 321 320 317 315 311 309 308 308
166 167 169 173 171 168 167 167 170 165 168 172 171 172 173 173 175 165 143 356 344 340 339 340 337 333 330 327 326 325 326 326 325 324 322 317 314 315 312 310 306 305 307
168 171 173 174 172 169 168 169 172 171 172 177 178 180 181 182 179 182 309 331 333 334 336 334 332 330 328 325 324 325 325 324 323 321 318 315 314 314 312 309 309 307 305
170 173 175 177 175 174 173 175 176 176 177 182 187 187 187 190 200 246 313 327 331 332 332 331 332 330 327 325 325 326 325 323 322 320 317 315 313 314 310 304 302 303 305
171 174 178 178 178 179 178 181 183 184 185 190 193 194 197 206 231 277 309 324 330 330 330 331 331 329 327 327 326 325 324 323 323 322 318 313 312 313 311 307 299 299 299
175 177 178 180 180 184 185 186 189 192 194 198 200 203 209 226 254 290 318 329 330 330 331 330 330 330 329 328 326 325 326 325 323 321 315 313 316 317 312 310 310 309 304
175 179 180 180 183 188 190 194 194 198 203 205 206 211 223 242 273 307 324 330 331 331 329 330 331 329 328 327 327 327 328 325 322 316 318 321 323 319 319 319 316 310 309
175 179 181 184 187 192 195 197 199 203 207 209 213 220 230 252 289 319 330 331 330 329 331 330 329 330 330 329 329 328 326 319 316 317 319 323 323 320 322 320 315 311 308
178 178 181 187 193 196 199 200 204 206 212 215 218 223 234 265 308 328 332 332 331 333 330 331 332 332 331 329 329 324 319 318 316 316 320 324 325 323 320 315 313 312 309
177 183 185 189 193 195 199 204 209 211 215 219 219 222 240 283 317 329 334 334 333 330 331 332 332 332 330 329 325 322 320 315 313 315 322 328 328 316 313 314 311 310 306
178 186 188 190 194 198 199 204 210 212 219 218 214 223 251 294 319 330 336 333 331 332 333 332 332 331 329 328 326 321 316 313 313 318 325 328 328 323 314 316 312 309 308
187 189 190 192 197 201 204 206 210 216 217 211 213 227 263 299 322 332 334 331 332 332 333 333 331 331 331 331 327 323 317 313 317 321 324 325 324 320 321 321 313 310 312
189 188 188 191 196 196 200 206 210 214 211 205 210 235 285 318 325 331 331 331 332 334 335 333 333 334 334 332 327 326 320 317 318 323 322 322 321 323 321 316 311 314 318
182 182 186 188 187 193 199 202 205 204 197 199 214 265 312 321 325 330 332 333 334 335 333 335 337 336 335 333 332 328 319 317 323 324 321 321 323 322 319 314 322 321 319
163 170 176 178 185 187 197 202 194 189 190 198 234 296 313 321 331 333 336 336 335 333 335 336 336 335 335 336 334 329 328 326 324 321 325 328 324 321 319 324 323 322 320
153 161 166 173 179 185 192 189 184 181 185 202 272 302 316 332 337 337 337 335 334 335 335 333 335 338 341 341 340 338 332 328 323 326 326 327 325 324 324 321 318 318 319
148 159 164 167 169 178 179 173 172 174 184 231 285 309 334 339 338 337 336 336 336 334 334 334 336 339 340 341 343 336 334 329 327 325 324 326 325 323 322 321 324 321 319
147 150 156 155 161 167 171 171 171 178 202 249 290 335 339 338 339 336 337 337 336 336 336 337 336 336 337 340 345 343 334 329 327 324 325 323 325 325 326 330 326 330 337
148 153 157 160 164 170 175 179 179 189 215 229 326 332 335 336 337 338 338 336 339 339 339 334 332 332 334 338 342 335 331 331 329 333 325 324 327 333 332 338 342 338 331
152 158 162 163 167 171 174 177 183 195 197 302 331 332 334 336 338 337 337 338 341 340 332 330 328 331 331 333 330 330 329 328 328 325 321 331 337 336 337 339 340 338 336
159 165 166 165 167 171 176 178 182 187 265 319 326 331 334 338 335 334 335 338 340 340 338 334 331 327 325 326 328 330 327 328 328 323 331 333 332 331 333 335 337 339 339
Height
1464 1465 1467 1470 1472 1473 1474 1475 1477 1479 1480 1483 1487 1490 1492 1495 1498 1499 1500 1500 1501 1500 1499 1498 1497 1494 1491 1488 1485 1483 1480 1477 1473 1468 1464 1462 1462 1459 1459 1456 1454 1451 1449
1460 1463 1466 1470 1470 1472 1473 1474 1477 1478 1481 1484 1486 1489 1491 1495 1498 1499 1500 1500 1499 1498 1498 1496 1494 1492 1489 1486 1483 1480 1477 1475 1471 1467 1462 1457 1455 1455 1453 1450 1449 1447 1445
1454 1459 1463 1468 1470 1472 1473 1474 1476 1478 1481 1483 1485 1487 1491 1494 1496 1498 1499 1498 1498 1496 1495 1494 1491 1488 1486 1483 1480 1478 1475 1472 1471 1469 1467 1463 1459 1450 1448 1446 1444 1442 1438
1451 1452 1458 1465 1467 1470 1473 1475 1478 1479 1481 1483 1484 1487 1490 1492 1495 1497 1497 1497 1496 1494 1493 1491 1488 1485 1483 1481 1478 1476 1473 1471 1469 1467 1466 1466 1462 1455 1441 1440 1436 1435 1431
1443 1448 1454 1461 1464 1467 1471 1474 1477 1479 1480 1482 1485 1487 1490 1492 1493 1495 1495 1495 1494 1492 1490 1488 1485 1482 1480 1478 1476 1474 1472 1469 1467 1465 1461 1458 1455 1451 1446 1430 1429 1428 1425
1441 1446 1450 1458 1462 1466 1470 1473 1475 1477 1480 1482 1485 1487 1489 1490 1492 1492 1493 1492 1491 1489 1488 1486 1483 1480 1477 1475 1473 1471 1469 1467 1464 1462 1459 1456 1452 1446 1442 1431 1423 1419 1416
1436 1441 1446 1454 1460 1464 1468 1471 1474 1476 1479 1482 1485 1487 1488 1490 1491 1491 1491 1490 1489 1487 1485 1483 1480 1477 1475 1473 1470 1468 1466 1463 1460 1456 1453 1450 1447 1444 1439 1431 1419 1410 1407
1433 1438 1444 1452 1458 1462 1465 1469 1472 1475 1478 1481 1483 1485 1487 1488 1489 1489 1488 1488 1486 1485 1483 1481 1477 1475 1472 1470 1467 1464 1461 1458 1455 1451 1448 1444 1441 1438 1434 1428 1420 1401 1398
1430 1435 1443 1450 1456 1460 1464 1467 1471 1474 1477 1480 1482 1483 1485 1486 1486 1486 1486 1485 1484 1483 1480 1477 1475 1472 1469 1466 1463 1459 1456 1452 1449 1445 1441 1438 1434 1430 1426 1422 1418 1410 1391
1428 1434 1440 1447 1454 1459 1462 1466 1470 1472 1475 1478 1481 1482 1483 1484 1484 1484 1484 1483 1481 1479 1477 1474 1471 1469 1466 1462 1459 1455 1451 1447 1443 1439 1435 1432 1427 1422 1417 1413 1410 1405 1397
1425 1431 1439 1446 1452 1457 1461 1464 1467 1470 1473 1476 1478 1479 1481 1482 1482 1482 1481 1480 1478 1475 1473 1470 1468 1465 1462 1458 1454 1449 1445 1440 1436 1432 1428 1424 1419 1412 1408 1404 1401 1396 1392
1424 1431 1437 1444 1450 1455 1458 1461 1464 1468 1471 1474 1476 1477 1478 1479 1479 1479 1478 1476 1474 1471 1469 1466 1464 1460 1457 1452 1447 1443 1439 1434 1430 1426 1420 1415 1410 1405 1401 1397 1393 1389 1384
1425 1430 1436 1441 1447 1452 1455 1459 1462 1466 1469 1471 1473 1474 1475 1476 1476 1476 1475 1472 1470 1468 1465 1462 1459 1455 1451 1446 1442 1438 1433 1429 1425 1419 1415 1409 1403 1398 1394 1391 1386 1381 1375
1422 1428 1435 1440 1446 1450 1454 1457 1460 1464 1467 1468 1470 1472 1473 1474 1474 1473 1471 1469 1466 1464 1462 1459 1454 1450 1445 1441 1436 1432 1427 1423 1418 1414 1409 1404 1398 1393 1388 1385 1380 1374 1367
1419 1424 1429 1436 1442 1448 1452 1455 1459 1462 1464 1466 1468 1470 1471 1471 1471 1469 1467 1465 1463 1460 1457 1453 1449 1445 1440 1436 1431 1426 1421 1417 1412 1408 1403 1398 1393 1389 1385 1380 1373 1367 1359
1418 1423 1429 1434 1440 1444 1448 1453 1457 1460 1462 1464 1466 1468 1469 1468 1467 1466 1464 1462 1459 1456 1453 1449 1444 1440 1435 1430 1426 1422 1416 1411 1406 1401 1397 1392 1387 1382 1378 1373 1367 1361 1353
1416 1421 1426 1432 1437 1442 1446 1450 1455 1458 1460 1463 1465 1466 1466 1466 1465 1463 1460 1458 1456 1452 1448 1444 1439 1435 1430 1425 1421 1416 1411 1406 1401 1396 1390 1384 1380 1375 1368 1361 1357 1351 1347
1415 1420 1425 1431 1436 1441 1446 1450 1453 1456 1458 1461 1462 1463 1463 1463 1461 1459 1457 1455 1452 1448 1443 1439 1435 1430 1425 1420 1416 1411 1405 1400 1395 1390 1385 1379 1373 1368 1363 1355 1347 1341 1335
1413 1419 1425 1430 1435 1440 1444 1448 1452 1454 1457 1459 1460 1460 1460 1460 1458 1457 1454 1451 1447 1443 1439 1435 1430 1425 1420 1415 1410 1406 1400 1394 1389 1384 1379 1375 1368 1362 1356 1348 1338 1331 1326
1415 1420 1425 1430 1435 1440 1444 1447 1450 1453 1455 1457 1458 1458 1458 1457 1455 1453 1450 1447 1443 1439 1434 1430 1426 1421 1415 1410 1405 1401 1395 1388 1383 1378 1372 1367 1363 1356 1349 1341 1333 1324 1318
1419 1423 1428 1432 1436 1440 1443 1446 1449 1451 1454 1455 1456 1455 1455 1454 1452 1450 1447 1443 1438 1434 1430 1425 1421 1416 1411 1405 1400 1396 1391 1385 1378 1372 1365 1360 1354 1348 1343 1337 1329 1322 1313
1421 1425 1429 1433 1437 1440 1443 1446 1448 1451 1453 1454 1454 1453 1452 1451 1449 1446 1443 1439 1434 1430 1425 1419 1414 1410 1405 1401 1396 1392 1388 1382 1376 1369 1361 1354 1348 1343 1336 1329 1323 1316 1309
1423 1427 1430 1433 1437 1440 1443 1445 1448 1450 1451 1452 1451 1451 1450 1448 1446 1442 1438 1434 1430 1425 1419 1414 1408 1403 1400 1395 1391 1386 1381 1377 1371 1365 1357 1349 1343 1336 1328 1323 1317 1310 1301
1425 1428 1431 1434 1437 1440 1443 1445 1447 1448 1449 1449 1449 1449 1448 1446 1443 1440 1435 1431 1426 1421 1416 1411 1406 1400 1395 1391 1386 1382 1377 1371 1364 1358 1349 1344 1338 1331 1325 1317 1310 1304 1298
1426 1429 1432 1435 1437 1440 1442 1444 1446 1447 1448 1448 1447 1446 1445 1442 1439 1436 1432 1428 1424 1419 1414 1410 1405 1398 1392 1388 1386 1380 1374 1367 1361 1353 1345 1338 1332 1325 1319 1313 1306 1299 1293
1426 1429 1432 1435 1437 1439 1442 1443 1444 1445 1446 1446 1445 1443 1441 1438 1435 1431 1427 1425 1420 1416 1412 1408 1403 1397 1393 1387 1381 1376 1370 1364 1357 1349 1342 1335 1330 1323 1316 1309 1302 1295 1289